| time (UTC) | temp F | wind direction | speed MPH | gust MPH | rain 1hr in | rain 24hr in | rain mn in | humidity % | barometer mb |
| 20260507155542 | 40 | 281 | 4.0 | 9.0 | 0.00 | 0.24 | 0.06 | 79 | 1016.7 |
| 20260507155044 | 40 | 253 | 4.0 | 9.0 | 0.00 | 0.24 | 0.06 | 78 | 1016.8 |
| 20260507154552 | 40 | 268 | 4.0 | 9.0 | 0.00 | 0.24 | 0.06 | 78 | 1016.7 |
| 20260507154044 | 40 | 271 | 2.0 | 9.0 | 0.00 | 0.24 | 0.06 | 77 | 1016.7 |
| 20260507153546 | 40 | 261 | 3.0 | 9.0 | 0.00 | 0.24 | 0.06 | 77 | 1016.8 |
| 20260507153047 | 40 | 257 | 5.0 | 10.0 | 0.00 | 0.24 | 0.06 | 77 | 1016.7 |
| 20260507152553 | 40 | 273 | 4.0 | 10.0 | 0.00 | 0.24 | 0.06 | 77 | 1016.8 |
| 20260507152046 | 40 | 266 | 5.0 | 10.0 | 0.00 | 0.24 | 0.06 | 76 | 1016.8 |
| 20260507151557 | 41 | 216 | 6.0 | 12.0 | 0.00 | 0.24 | 0.06 | 76 | 1016.9 |
| 20260507151043 | 41 | 251 | 7.0 | 12.0 | 0.00 | 0.24 | 0.06 | 75 | 1016.9 |
| 20260507150557 | 42 | 315 | 5.0 | 12.0 | 0.00 | 0.24 | 0.06 | 76 | 1016.9 |
| 20260507150053 | 42 | 262 | 4.0 | 16.0 | 0.00 | 0.24 | 0.06 | 76 | 1016.7 |
| 20260507145547 | 42 | 243 | 8.0 | 16.0 | 0.00 | 0.24 | 0.06 | 75 | 1016.7 |
| 20260507145044 | 42 | 240 | 5.0 | 11.0 | 0.00 | 0.24 | 0.06 | 74 | 1016.6 |
| 20260507144548 | 42 | 306 | 4.0 | 10.0 | 0.00 | 0.24 | 0.06 | 73 | 1016.4 |
| 20260507144043 | 42 | 261 | 4.0 | 9.0 | 0.00 | 0.24 | 0.06 | 72 | 1016.4 |
| 20260507143543 | 42 | 233 | 4.0 | 9.0 | 0.00 | 0.24 | 0.06 | 71 | 1016.3 |
| 20260507143058 | 42 | 267 | 4.0 | 12.0 | 0.00 | 0.24 | 0.06 | 72 | 1016.4 |
| 20260507142546 | 42 | 240 | 5.0 | 12.0 | 0.00 | 0.24 | 0.06 | 71 | 1016.4 |
| 20260507142043 | 42 | 223 | 5.0 | 11.0 | 0.00 | 0.24 | 0.06 | 71 | 1016.4 |
| 20260507141553 | 43 | 223 | 6.0 | 11.0 | 0.00 | 0.24 | 0.06 | 72 | 1016.4 |
| 20260507141043 | 43 | 235 | 5.0 | 9.0 | 0.00 | 0.24 | 0.06 | 74 | 1016.4 |
| 20260507140543 | 43 | 258 | 3.0 | 10.0 | 0.00 | 0.24 | 0.06 | 75 | 1016.3 |
| 20260507140110 | 43 | 255 | 3.0 | 12.0 | 0.00 | 0.24 | 0.06 | 74 | 1016.2 |
| 20260507135543 | 43 | 244 | 5.0 | 13.0 | 0.00 | 0.24 | 0.06 | 74 | 1016.1 |
| 20260507135043 | 43 | 234 | 7.0 | 13.0 | 0.00 | 0.24 | 0.06 | 74 | 1016.0 |
| 20260507134555 | 43 | 265 | 7.0 | 13.0 | 0.00 | 0.24 | 0.06 | 73 | 1016.0 |
| 20260507134043 | 43 | 252 | 8.0 | 13.0 | 0.00 | 0.24 | 0.06 | 73 | 1016.0 |
| 20260507133543 | 44 | 245 | 4.0 | 8.0 | 0.00 | 0.24 | 0.06 | 73 | 1015.9 |
| 20260507133056 | 43 | 243 | 4.0 | 11.0 | 0.00 | 0.24 | 0.06 | 72 | 1015.9 |
| 20260507132543 | 44 | 251 | 4.0 | 11.0 | 0.00 | 0.24 | 0.06 | 70 | 1015.9 |
| 20260507132042 | 44 | 209 | 4.0 | 11.0 | 0.00 | 0.24 | 0.06 | 70 | 1015.8 |
| 20260507131618 | 44 | 235 | 5.0 | 11.0 | 0.00 | 0.24 | 0.06 | 70 | 1015.9 |
| 20260507131043 | 44 | 288 | 4.0 | 9.0 | 0.00 | 0.24 | 0.06 | 71 | 1016.0 |
| 20260507130544 | 44 | 250 | 3.0 | 12.0 | 0.00 | 0.24 | 0.06 | 72 | 1015.9 |
| 20260507130050 | 44 | 178 | 6.0 | 12.0 | 0.00 | 0.24 | 0.06 | 70 | 1015.9 |
| 20260507125543 | 44 | 240 | 6.0 | 11.0 | 0.00 | 0.24 | 0.06 | 70 | 1015.9 |
| 20260507125043 | 44 | 275 | 5.0 | 12.0 | 0.00 | 0.24 | 0.06 | 69 | 1015.9 |
| 20260507124600 | 44 | 230 | 6.0 | 13.0 | 0.00 | 0.24 | 0.06 | 68 | 1015.9 |
| 20260507124044 | 44 | 299 | 3.0 | 13.0 | 0.00 | 0.24 | 0.06 | 72 | 1015.7 |
| 20260507123543 | 44 | 209 | 5.0 | 13.0 | 0.00 | 0.24 | 0.06 | 69 | 1015.8 |
| 20260507123051 | 43 | 265 | 5.0 | 11.0 | 0.00 | 0.24 | 0.06 | 71 | 1015.7 |
| 20260507122543 | 43 | 194 | 3.0 | 10.0 | 0.00 | 0.24 | 0.06 | 72 | 1015.6 |
| 20260507122047 | 43 | 213 | 4.0 | 10.0 | 0.00 | 0.24 | 0.06 | 74 | 1015.7 |
| 20260507121556 | 43 | 261 | 5.0 | 11.0 | 0.00 | 0.24 | 0.06 | 76 | 1015.6 |
| 20260507121043 | 42 | 186 | 4.0 | 11.0 | 0.00 | 0.24 | 0.06 | 78 | 1015.5 |
| 20260507120542 | 42 | 315 | 3.0 | 8.0 | 0.00 | 0.24 | 0.06 | 79 | 1015.6 |
| 20260507120051 | 42 | 242 | 3.0 | 8.0 | 0.00 | 0.24 | 0.06 | 79 | 1015.7 |
| 20260507115543 | 41 | 175 | 3.0 | 9.0 | 0.00 | 0.24 | 0.06 | 80 | 1015.6 |
| 20260507115043 | 41 | 259 | 5.0 | 9.0 | 0.00 | 0.24 | 0.06 | 79 | 1015.7 |
| 20260507114549 | 41 | 171 | 3.0 | 9.0 | 0.00 | 0.24 | 0.06 | 79 | 1015.6 |
| 20260507114051 | 41 | 165 | 3.0 | 7.0 | 0.00 | 0.24 | 0.06 | 81 | 1015.6 |
| 20260507113545 | 41 | 197 | 1.0 | 4.0 | 0.00 | 0.24 | 0.06 | 80 | 1015.6 |
| 20260507113107 | 41 | 314 | 1.0 | 9.0 | 0.00 | 0.24 | 0.06 | 79 | 1015.4 |
| 20260507112545 | 41 | 0 | 2.0 | 10.0 | 0.00 | 0.24 | 0.06 | 78 | 1015.5 |
| 20260507112042 | 41 | 259 | 5.0 | 12.0 | 0.00 | 0.24 | 0.06 | 77 | 1015.4 |
| 20260507111545 | 41 | 315 | 5.0 | 14.0 | 0.00 | 0.24 | 0.06 | 77 | 1015.3 |
| 20260507111042 | 41 | 219 | 8.0 | 14.0 | 0.00 | 0.24 | 0.06 | 75 | 1015.2 |
| 20260507110543 | 42 | 221 | 5.0 | 14.0 | 0.00 | 0.24 | 0.06 | 77 | 1015.1 |
| 20260507110051 | 42 | 263 | 5.0 | 13.0 | 0.00 | 0.24 | 0.06 | 78 | 1014.9 |
| 20260507105542 | 42 | 258 | 5.0 | 11.0 | 0.00 | 0.24 | 0.06 | 77 | 1014.8 |
| 20260507105043 | 42 | 240 | 6.0 | 12.0 | 0.00 | 0.24 | 0.06 | 77 | 1014.8 |
| 20260507104559 | 42 | 196 | 4.0 | 12.0 | 0.00 | 0.24 | 0.06 | 77 | 1014.8 |
| 20260507104043 | 42 | 253 | 6.0 | 12.0 | 0.00 | 0.24 | 0.06 | 77 | 1014.7 |
| 20260507103543 | 42 | 250 | 3.0 | 10.0 | 0.00 | 0.24 | 0.06 | 75 | 1014.6 |
| 20260507103049 | 42 | 244 | 6.0 | 10.0 | 0.00 | 0.24 | 0.06 | 74 | 1014.6 |
| 20260507102542 | 42 | 230 | 5.0 | 10.0 | 0.00 | 0.24 | 0.06 | 75 | 1014.5 |
| 20260507102042 | 42 | 236 | 5.0 | 10.0 | 0.00 | 0.24 | 0.06 | 75 | 1014.6 |
| 20260507101554 | 42 | 192 | 5.0 | 10.0 | 0.00 | 0.24 | 0.06 | 76 | 1014.6 |
| 20260507101042 | 42 | 249 | 4.0 | 11.0 | 0.00 | 0.24 | 0.06 | 77 | 1014.6 |
| 20260507100542 | 42 | 300 | 6.0 | 12.0 | 0.00 | 0.24 | 0.06 | 76 | 1014.5 |
| 20260507100056 | 42 | 273 | 4.0 | 12.0 | 0.00 | 0.24 | 0.06 | 76 | 1014.5 |
| 20260507095545 | 42 | 214 | 7.0 | 12.0 | 0.00 | 0.24 | 0.06 | 78 | 1014.4 |
| 20260507095043 | 42 | 257 | 5.0 | 8.0 | 0.00 | 0.24 | 0.06 | 78 | 1014.5 |
| 20260507094555 | 42 | 180 | 4.0 | 8.0 | 0.00 | 0.24 | 0.06 | 78 | 1014.4 |
| 20260507094046 | 42 | 294 | 3.0 | 12.0 | 0.00 | 0.24 | 0.06 | 79 | 1014.4 |
| 20260507093543 | 42 | 258 | 6.0 | 12.0 | 0.00 | 0.24 | 0.06 | 79 | 1014.3 |
| 20260507093053 | 42 | 263 | 3.0 | 10.0 | 0.00 | 0.24 | 0.06 | 78 | 1014.3 |
| 20260507092543 | 42 | 227 | 5.0 | 12.0 | 0.00 | 0.24 | 0.06 | 78 | 1014.3 |
| 20260507092047 | 42 | 252 | 5.0 | 12.0 | 0.00 | 0.24 | 0.06 | 77 | 1014.3 |
| 20260507091553 | 42 | 238 | 5.0 | 11.0 | 0.00 | 0.24 | 0.06 | 76 | 1014.3 |
| 20260507091043 | 42 | 233 | 4.0 | 9.0 | 0.00 | 0.24 | 0.06 | 76 | 1014.1 |
| 20260507090542 | 42 | 243 | 4.0 | 9.0 | 0.01 | 0.24 | 0.06 | 75 | 1014.1 |
| 20260507090055 | 42 | 207 | 2.0 | 9.0 | 0.02 | 0.24 | 0.06 | 78 | 1014.0 |
| 20260507085542 | 42 | 260 | 1.0 | 7.0 | 0.02 | 0.24 | 0.06 | 81 | 1013.9 |
| 20260507085042 | 41 | 231 | 1.0 | 7.0 | 0.02 | 0.24 | 0.06 | 79 | 1014.0 |
| 20260507084558 | 41 | 167 | 2.0 | 7.0 | 0.02 | 0.24 | 0.06 | 78 | 1013.9 |
| 20260507084042 | 41 | 170 | 4.0 | 9.0 | 0.02 | 0.24 | 0.06 | 78 | 1013.9 |
| 20260507083542 | 41 | 191 | 3.0 | 12.0 | 0.02 | 0.24 | 0.06 | 79 | 1013.8 |
| 20260507083047 | 41 | 232 | 3.0 | 12.0 | 0.02 | 0.24 | 0.06 | 80 | 1013.8 |
| 20260507082542 | 41 | 232 | 4.0 | 12.0 | 0.02 | 0.24 | 0.06 | 80 | 1013.8 |
| 20260507082042 | 41 | 230 | 2.0 | 7.0 | 0.01 | 0.23 | 0.05 | 80 | 1013.7 |
| 20260507081554 | 41 | 175 | 1.0 | 4.0 | 0.01 | 0.23 | 0.05 | 80 | 1013.8 |
| 20260507081042 | 41 | 0 | 1.0 | 12.0 | 0.01 | 0.23 | 0.05 | 78 | 1013.7 |
| 20260507080545 | 41 | 300 | 2.0 | 12.0 | 0.00 | 0.22 | 0.04 | 78 | 1013.7 |
| 20260507080054 | 42 | 232 | 4.0 | 10.0 | 0.00 | 0.22 | 0.03 | 78 | 1013.6 |
| 20260507075546 | 42 | 263 | 2.0 | 9.0 | 0.00 | 0.22 | 0.03 | 78 | 1013.6 |
| 20260507075043 | 42 | 259 | 2.0 | 7.0 | 0.00 | 0.22 | 0.03 | 78 | 1013.5 |
| 20260507074552 | 42 | 254 | 2.0 | 6.0 | 0.00 | 0.22 | 0.03 | 78 | 1013.5 |
| 20260507074042 | 42 | 137 | 0.0 | 4.0 | 0.00 | 0.22 | 0.03 | 80 | 1013.5 |
| 20260507073542 | 42 | 100 | 0.0 | 4.0 | 0.00 | 0.22 | 0.03 | 82 | 1013.5 |
| 20260507073056 | 42 | 101 | 0.0 | 4.0 | 0.00 | 0.22 | 0.03 | 82 | 1013.3 |
| 20260507072542 | 42 | 101 | 0.0 | 6.0 | 0.00 | 0.22 | 0.03 | 83 | 1013.3 |
| 20260507072045 | 42 | 0 | 1.0 | 6.0 | 0.00 | 0.22 | 0.03 | 83 | 1013.3 |
| 20260507071551 | 42 | 103 | 1.0 | 6.0 | 0.00 | 0.22 | 0.03 | 85 | 1013.2 |
| 20260507071043 | 41 | 98 | 0.0 | 6.0 | 0.00 | 0.22 | 0.03 | 85 | 1013.2 |
| 20260507070543 | 40 | 103 | 2.0 | 4.0 | 0.00 | 0.22 | 0.03 | 85 | 1013.1 |
| 20260507070103 | 40 | 0 | 0.0 | 0.0 | 0.01 | 0.22 | 0.03 | 84 | 1013.1 |
| 20260507065542 | 40 | 0 | 0.0 | 0.0 | 0.01 | 0.22 | 0.03 | 84 | 1013.0 |
| 20260507065042 | 39 | 0 | 0.0 | 0.0 | 0.01 | 0.22 | 0.03 | 83 | 1013.0 |
| 20260507064550 | 39 | 0 | 0.0 | 0.0 | 0.01 | 0.22 | 0.03 | 83 | 1013.0 |
| 20260507064043 | 39 | 0 | 0.0 | 0.0 | 0.01 | 0.22 | 0.03 | 83 | 1012.9 |
| 20260507063544 | 39 | 0 | 0.0 | 0.0 | 0.01 | 0.22 | 0.03 | 83 | 1013.0 |
| 20260507063055 | 39 | 0 | 0.0 | 0.0 | 0.01 | 0.22 | 0.03 | 82 | 1013.0 |
| 20260507062542 | 39 | 0 | 0.0 | 0.0 | 0.01 | 0.22 | 0.03 | 82 | 1012.9 |
| 20260507062042 | 39 | 0 | 0.0 | 4.0 | 0.01 | 0.22 | 0.03 | 82 | 1012.9 |
| 20260507061547 | 39 | 0 | 0.0 | 4.0 | 0.01 | 0.22 | 0.03 | 82 | 1012.9 |
| 20260507061043 | 39 | 244 | 1.0 | 4.0 | 0.01 | 0.22 | 0.03 | 83 | 1012.9 |
| 20260507060542 | 39 | 352 | 1.0 | 4.0 | 0.00 | 0.21 | 0.03 | 83 | 1012.9 |
| 20260507060051 | 39 | 0 | 0.0 | 0.0 | 0.00 | 0.20 | 0.02 | 83 | 1012.8 |
| 20260507055542 | 39 | 0 | 0.0 | 0.0 | 0.00 | 0.20 | 0.02 | 83 | 1012.7 |
| 20260507055041 | 38 | 0 | 0.0 | 0.0 | 0.00 | 0.20 | 0.02 | 83 | 1012.6 |
| 20260507054551 | 38 | 0 | 0.0 | 0.0 | 0.00 | 0.20 | 0.02 | 83 | 1012.6 |
| 20260507054044 | 38 | 0 | 0.0 | 0.0 | 0.00 | 0.20 | 0.02 | 83 | 1012.6 |
| 20260507053543 | 38 | 0 | 0.0 | 0.0 | 0.00 | 0.20 | 0.02 | 83 | 1012.6 |
| 20260507053052 | 38 | 0 | 0.0 | 0.0 | 0.00 | 0.20 | 0.02 | 84 | 1012.5 |
| 20260507052542 | 38 | 0 | 0.0 | 0.0 | 0.00 | 0.20 | 0.02 | 84 | 1012.4 |
| 20260507052043 | 38 | 0 | 0.0 | 0.0 | 0.00 | 0.20 | 0.02 | 84 | 1012.3 |
| 20260507051600 | 38 | 0 | 0.0 | 0.0 | 0.00 | 0.20 | 0.02 | 84 | 1012.3 |
| 20260507051042 | 37 | 0 | 0.0 | 0.0 | 0.00 | 0.20 | 0.02 | 84 | 1012.3 |
| 20260507050543 | 37 | 0 | 0.0 | 0.0 | 0.00 | 0.20 | 0.02 | 84 | 1012.4 |
| 20260507050106 | 37 | 0 | 0.0 | 0.0 | 0.00 | 0.20 | 0.02 | 85 | 1012.3 |
| 20260507045542 | 37 | 0 | 0.0 | 0.0 | 0.00 | 0.20 | 0.02 | 85 | 1012.4 |
| 20260507045042 | 37 | 0 | 0.0 | 0.0 | 0.00 | 0.20 | 0.02 | 85 | 1012.2 |
| 20260507044552 | 37 | 0 | 0.0 | 0.0 | 0.00 | 0.20 | 0.02 | 85 | 1012.3 |
| 20260507044046 | 37 | 0 | 0.0 | 0.0 | 0.00 | 0.20 | 0.02 | 85 | 1012.2 |
| 20260507043542 | 37 | 0 | 0.0 | 0.0 | 0.00 | 0.20 | 0.02 | 85 | 1012.2 |
| 20260507043050 | 36 | 0 | 0.0 | 0.0 | 0.00 | 0.20 | 0.02 | 86 | 1012.1 |
| 20260507042545 | 36 | 0 | 0.0 | 0.0 | 0.00 | 0.20 | 0.02 | 85 | 1012.1 |
| 20260507042043 | 36 | 0 | 0.0 | 0.0 | 0.00 | 0.20 | 0.02 | 85 | 1012.1 |
| 20260507041555 | 36 | 0 | 0.0 | 0.0 | 0.00 | 0.20 | 0.02 | 85 | 1012.1 |
| 20260507041043 | 36 | 0 | 0.0 | 0.0 | 0.00 | 0.20 | 0.02 | 84 | 1012.1 |
| 20260507040543 | 36 | 0 | 0.0 | 0.0 | 0.00 | 0.20 | 0.02 | 84 | 1012.0 |
| 20260507040053 | 36 | 0 | 0.0 | 0.0 | 0.00 | 0.20 | 0.02 | 84 | 1012.0 |
| 20260507035542 | 36 | 0 | 0.0 | 0.0 | 0.00 | 0.20 | 0.02 | 85 | 1011.9 |
| 20260507035045 | 35 | 0 | 0.0 | 0.0 | 0.00 | 0.20 | 0.02 | 85 | 1011.9 |
| 20260507034546 | 35 | 0 | 0.0 | 0.0 | 0.00 | 0.20 | 0.02 | 84 | 1011.9 |
| 20260507034043 | 35 | 0 | 0.0 | 0.0 | 0.00 | 0.20 | 0.02 | 84 | 1011.9 |
| 20260507033543 | 35 | 0 | 0.0 | 0.0 | 0.00 | 0.20 | 0.02 | 84 | 1011.9 |
| 20260507033049 | 35 | 0 | 0.0 | 0.0 | 0.00 | 0.20 | 0.02 | 84 | 1011.8 |
| 20260507032540 | 35 | 0 | 0.0 | 0.0 | 0.00 | 0.20 | 0.02 | 84 | 1011.9 |
| 20260507032043 | 35 | 0 | 0.0 | 0.0 | 0.00 | 0.20 | 0.02 | 84 | 1012.0 |
| 20260507031545 | 35 | 0 | 0.0 | 0.0 | 0.00 | 0.20 | 0.02 | 84 | 1011.9 |
| 20260507031048 | 35 | 0 | 0.0 | 2.0 | 0.00 | 0.20 | 0.02 | 84 | 1012.0 |
| 20260507030543 | 35 | 0 | 0.0 | 2.0 | 0.00 | 0.20 | 0.02 | 84 | 1011.9 |
| 20260507030054 | 35 | 88 | 0.0 | 2.0 | 0.00 | 0.20 | 0.02 | 84 | 1011.9 |
| 20260507025545 | 35 | 0 | 0.0 | 0.0 | 0.00 | 0.20 | 0.02 | 84 | 1011.9 |
| 20260507025042 | 35 | 0 | 0.0 | 0.0 | 0.00 | 0.20 | 0.02 | 84 | 1011.8 |
| 20260507024553 | 35 | 0 | 0.0 | 0.0 | 0.00 | 0.20 | 0.02 | 83 | 1011.8 |
| 20260507024044 | 35 | 0 | 0.0 | 0.0 | 0.00 | 0.20 | 0.02 | 83 | 1011.8 |
| 20260507023545 | 35 | 0 | 0.0 | 0.0 | 0.00 | 0.20 | 0.02 | 83 | 1011.8 |
| 20260507023051 | 35 | 0 | 0.0 | 0.0 | 0.00 | 0.20 | 0.02 | 83 | 1011.8 |
| 20260507022542 | 35 | 0 | 0.0 | 0.0 | 0.00 | 0.20 | 0.02 | 82 | 1011.8 |
| 20260507022043 | 35 | 0 | 0.0 | 0.0 | 0.00 | 0.20 | 0.02 | 82 | 1011.7 |
| 20260507021557 | 35 | 0 | 0.0 | 0.0 | 0.00 | 0.20 | 0.02 | 82 | 1011.6 |
| 20260507021042 | 35 | 0 | 0.0 | 0.0 | 0.00 | 0.20 | 0.02 | 82 | 1011.7 |
| 20260507020543 | 35 | 0 | 0.0 | 0.0 | 0.00 | 0.20 | 0.02 | 83 | 1011.8 |
| 20260507020048 | 35 | 0 | 0.0 | 0.0 | 0.00 | 0.20 | 0.02 | 83 | 1011.7 |
| 20260507015542 | 35 | 0 | 0.0 | 0.0 | 0.00 | 0.20 | 0.02 | 83 | 1011.7 |
| 20260507015042 | 35 | 0 | 0.0 | 0.0 | 0.00 | 0.20 | 0.02 | 83 | 1011.7 |
| 20260507014547 | 35 | 0 | 0.0 | 0.0 | 0.00 | 0.20 | 0.02 | 83 | 1011.7 |
| 20260507014043 | 35 | 0 | 0.0 | 0.0 | 0.00 | 0.20 | 0.02 | 83 | 1011.6 |
| 20260507013544 | 35 | 0 | 0.0 | 0.0 | 0.00 | 0.20 | 0.02 | 83 | 1011.6 |
| 20260507013046 | 35 | 0 | 0.0 | 0.0 | 0.00 | 0.20 | 0.02 | 83 | 1011.5 |
| 20260507012546 | 35 | 0 | 0.0 | 0.0 | 0.00 | 0.20 | 0.02 | 82 | 1011.6 |
| 20260507012042 | 36 | 0 | 0.0 | 0.0 | 0.00 | 0.20 | 0.02 | 82 | 1011.6 |
| 20260507011550 | 36 | 0 | 0.0 | 0.0 | 0.00 | 0.20 | 0.02 | 82 | 1011.5 |
| 20260507011042 | 36 | 0 | 0.0 | 0.0 | 0.00 | 0.20 | 0.02 | 82 | 1011.4 |
| 20260507010542 | 36 | 0 | 0.0 | 0.0 | 0.00 | 0.20 | 0.02 | 82 | 1011.4 |
| 20260507010050 | 36 | 0 | 0.0 | 0.0 | 0.00 | 0.20 | 0.02 | 82 | 1011.4 |
| 20260507005543 | 36 | 0 | 0.0 | 0.0 | 0.00 | 0.20 | 0.02 | 82 | 1011.4 |
| 20260507005042 | 36 | 0 | 0.0 | 0.0 | 0.00 | 0.20 | 0.02 | 82 | 1011.5 |
| 20260507004547 | 36 | 0 | 0.0 | 0.0 | 0.00 | 0.20 | 0.02 | 82 | 1011.5 |
| 20260507004043 | 36 | 0 | 0.0 | 0.0 | 0.00 | 0.20 | 0.02 | 82 | 1011.5 |
| 20260507003543 | 36 | 0 | 0.0 | 0.0 | 0.00 | 0.20 | 0.02 | 82 | 1011.4 |
| 20260507003049 | 36 | 0 | 0.0 | 0.0 | 0.00 | 0.20 | 0.02 | 83 | 1011.5 |
| 20260507002542 | 36 | 0 | 0.0 | 0.0 | 0.00 | 0.20 | 0.02 | 83 | 1011.5 |
| 20260507002042 | 36 | 0 | 0.0 | 0.0 | 0.00 | 0.20 | 0.02 | 83 | 1011.4 |
| 20260507001551 | 36 | 0 | 0.0 | 0.0 | 0.00 | 0.20 | 0.02 | 83 | 1011.5 |
| 20260507001042 | 36 | 0 | 0.0 | 0.0 | 0.00 | 0.20 | 0.02 | 82 | 1011.4 |
| 20260507000542 | 36 | 0 | 0.0 | 0.0 | 0.00 | 0.20 | 0.02 | 82 | 1011.4 |
| 20260507000054 | 36 | 0 | 0.0 | 0.0 | 0.00 | 0.20 | 0.02 | 81 | 1011.3 |
| 20260506235543 | 36 | 0 | 0.0 | 0.0 | 0.00 | 0.20 | 0.02 | 81 | 1011.2 |
| 20260506235042 | 36 | 0 | 0.0 | 0.0 | 0.00 | 0.19 | 0.01 | 81 | 1011.2 |
| 20260506234607 | 37 | 0 | 0.0 | 0.0 | 0.00 | 0.19 | 0.01 | 82 | 1011.1 |
| 20260506234043 | 37 | 0 | 0.0 | 0.0 | 0.00 | 0.19 | 0.01 | 82 | 1011.1 |
| 20260506233543 | 37 | 0 | 0.0 | 0.0 | 0.00 | 0.19 | 0.01 | 82 | 1011.1 |
| 20260506233047 | 37 | 0 | 0.0 | 0.0 | 0.00 | 0.19 | 0.01 | 82 | 1011.1 |
| 20260506232545 | 37 | 0 | 0.0 | 0.0 | 0.00 | 0.19 | 0.01 | 82 | 1011.0 |
| 20260506232042 | 37 | 0 | 0.0 | 0.0 | 0.00 | 0.19 | 0.01 | 82 | 1011.1 |
| 20260506231550 | 37 | 0 | 0.0 | 0.0 | 0.00 | 0.19 | 0.01 | 82 | 1011.1 |
| 20260506231042 | 37 | 0 | 0.0 | 0.0 | 0.00 | 0.19 | 0.01 | 82 | 1011.1 |
| 20260506230544 | 37 | 0 | 0.0 | 0.0 | 0.01 | 0.19 | 0.01 | 82 | 1011.1 |
| 20260506230045 | 37 | 0 | 0.0 | 0.0 | 0.01 | 0.19 | 0.01 | 82 | 1011.2 |
| 20260506225542 | 37 | 0 | 0.0 | 1.0 | 0.01 | 0.19 | 0.01 | 82 | 1011.2 |
| 20260506225042 | 37 | 0 | 0.0 | 1.0 | 0.02 | 0.19 | 0.01 | 82 | 1011.2 |
| 20260506224548 | 37 | 0 | 0.0 | 1.0 | 0.01 | 0.18 | 0.00 | 82 | 1011.2 |
| 20260506224041 | 37 | 0 | 0.0 | 1.0 | 0.02 | 0.18 | 0.00 | 82 | 1011.1 |
| 20260506223542 | 37 | 0 | 0.0 | 2.0 | 0.02 | 0.18 | 0.00 | 82 | 1011.1 |
| 20260506223056 | 37 | 88 | 0.0 | 2.0 | 0.02 | 0.18 | 0.00 | 82 | 1011.0 |
| 20260506222543 | 37 | 88 | 0.0 | 4.0 | 0.02 | 0.18 | 0.00 | 83 | 1011.1 |
| 20260506222045 | 37 | 90 | 0.0 | 6.0 | 0.02 | 0.18 | 0.00 | 83 | 1011.0 |
| 20260506221551 | 37 | 90 | 1.0 | 6.0 | 0.02 | 0.18 | 0.00 | 83 | 1011.0 |
| 20260506221044 | 37 | 107 | 2.0 | 6.0 | 0.02 | 0.18 | 0.00 | 83 | 1011.0 |
| 20260506220542 | 37 | 98 | 0.0 | 3.0 | 0.01 | 0.18 | 0.00 | 83 | 1011.1 |
| 20260506220049 | 37 | 0 | 0.0 | 2.0 | 0.01 | 0.18 | 0.00 | 82 | 1011.1 |
| 20260506215543 | 37 | 0 | 0.0 | 2.0 | 0.00 | 0.17 | 0.17 | 82 | 1011.1 |
| 20260506215044 | 37 | 98 | 0.0 | 3.0 | 0.00 | 0.17 | 0.17 | 83 | 1011.0 |
| 20260506214546 | 37 | 0 | 0.0 | 4.0 | 0.00 | 0.17 | 0.17 | 83 | 1010.9 |
| 20260506214042 | 38 | 98 | 2.0 | 4.0 | 0.00 | 0.16 | 0.16 | 83 | 1010.9 |
| 20260506213545 | 38 | 98 | 1.0 | 4.0 | 0.00 | 0.16 | 0.16 | 82 | 1010.9 |
| 20260506213050 | 38 | 101 | 0.0 | 3.0 | 0.00 | 0.16 | 0.16 | 82 | 1010.9 |
| 20260506212543 | 38 | 0 | 0.0 | 0.0 | 0.00 | 0.16 | 0.16 | 82 | 1010.8 |
| 20260506212042 | 38 | 0 | 0.0 | 0.0 | 0.00 | 0.16 | 0.16 | 82 | 1010.8 |
| 20260506211552 | 38 | 0 | 0.0 | 0.0 | 0.00 | 0.16 | 0.16 | 82 | 1010.7 |
| 20260506211042 | 38 | 0 | 0.0 | 0.0 | 0.00 | 0.16 | 0.16 | 82 | 1010.8 |
| 20260506210542 | 38 | 0 | 0.0 | 0.0 | 0.00 | 0.16 | 0.16 | 82 | 1010.8 |
| 20260506210051 | 38 | 0 | 0.0 | 2.0 | 0.00 | 0.16 | 0.16 | 82 | 1010.8 |
| 20260506205541 | 38 | 0 | 0.0 | 2.0 | 0.01 | 0.16 | 0.16 | 82 | 1010.7 |
| 20260506205041 | 38 | 186 | 1.0 | 2.0 | 0.02 | 0.16 | 0.16 | 82 | 1010.7 |
| 20260506204556 | 38 | 0 | 0.0 | 1.0 | 0.02 | 0.16 | 0.16 | 82 | 1010.7 |
| 20260506204045 | 38 | 0 | 0.0 | 2.0 | 0.01 | 0.15 | 0.15 | 82 | 1010.6 |
| 20260506203542 | 38 | 0 | 0.0 | 2.0 | 0.01 | 0.15 | 0.15 | 82 | 1010.4 |
| 20260506203047 | 39 | 0 | 1.0 | 2.0 | 0.01 | 0.15 | 0.15 | 82 | 1010.4 |
| 20260506202542 | 39 | 0 | 0.0 | 2.0 | 0.01 | 0.15 | 0.15 | 80 | 1010.3 |
| 20260506202042 | 39 | 0 | 0.0 | 0.0 | 0.01 | 0.15 | 0.15 | 80 | 1010.3 |
| 20260506201556 | 39 | 0 | 0.0 | 0.0 | 0.01 | 0.15 | 0.15 | 80 | 1010.3 |
| 20260506201043 | 39 | 0 | 0.0 | 0.0 | 0.01 | 0.15 | 0.15 | 80 | 1010.3 |
| 20260506200541 | 39 | 0 | 0.0 | 0.0 | 0.02 | 0.15 | 0.15 | 80 | 1010.3 |
| 20260506200109 | 39 | 0 | 0.0 | 0.0 | 0.02 | 0.15 | 0.15 | 80 | 1010.3 |
| 20260506195545 | 39 | 0 | 0.0 | 0.0 | 0.01 | 0.14 | 0.14 | 80 | 1010.3 |
| 20260506195042 | 39 | 0 | 0.0 | 0.0 | 0.00 | 0.14 | 0.14 | 80 | 1010.2 |
| 20260506194606 | 39 | 0 | 0.0 | 0.0 | 0.00 | 0.14 | 0.14 | 80 | 1010.1 |
| 20260506194041 | 39 | 0 | 0.0 | 0.0 | 0.00 | 0.14 | 0.14 | 80 | 1010.1 |
| 20260506193544 | 39 | 0 | 0.0 | 0.0 | 0.00 | 0.14 | 0.14 | 80 | 1010.0 |
| 20260506193052 | 39 | 0 | 0.0 | 0.0 | 0.00 | 0.14 | 0.14 | 80 | 1010.0 |
| 20260506192542 | 39 | 0 | 0.0 | 0.0 | 0.01 | 0.14 | 0.14 | 80 | 1010.1 |
| 20260506192046 | 39 | 0 | 0.0 | 1.0 | 0.01 | 0.14 | 0.14 | 80 | 1010.0 |
| 20260506191547 | 39 | 0 | 0.0 | 4.0 | 0.01 | 0.14 | 0.14 | 81 | 1010.0 |
| 20260506191042 | 39 | 0 | 1.0 | 4.0 | 0.02 | 0.14 | 0.14 | 81 | 1010.0 |
| 20260506190542 | 39 | 193 | 0.0 | 2.0 | 0.01 | 0.13 | 0.13 | 81 | 1010.0 |
| 20260506190053 | 39 | 0 | 0.0 | 0.0 | 0.01 | 0.13 | 0.13 | 81 | 1009.8 |
| 20260506185542 | 39 | 0 | 0.0 | 0.0 | 0.01 | 0.13 | 0.13 | 79 | 1009.7 |
| 20260506185045 | 39 | 0 | 0.0 | 0.0 | 0.01 | 0.13 | 0.13 | 79 | 1009.6 |
| 20260506184602 | 39 | 0 | 0.0 | 0.0 | 0.02 | 0.13 | 0.13 | 79 | 1009.7 |
| 20260506184042 | 39 | 0 | 0.0 | 0.0 | 0.02 | 0.13 | 0.13 | 80 | 1009.6 |
| 20260506183541 | 39 | 0 | 0.0 | 0.0 | 0.03 | 0.13 | 0.13 | 80 | 1009.6 |
| 20260506183102 | 39 | 0 | 0.0 | 0.0 | 0.03 | 0.13 | 0.13 | 79 | 1009.6 |
| 20260506182541 | 39 | 0 | 0.0 | 0.0 | 0.02 | 0.12 | 0.12 | 79 | 1009.5 |
| 20260506182041 | 39 | 0 | 0.0 | 0.0 | 0.02 | 0.12 | 0.12 | 79 | 1009.6 |
| 20260506181557 | 39 | 0 | 0.0 | 0.0 | 0.02 | 0.12 | 0.12 | 79 | 1009.6 |
| 20260506181042 | 39 | 0 | 0.0 | 0.0 | 0.02 | 0.11 | 0.11 | 79 | 1009.5 |
| 20260506180545 | 39 | 0 | 0.0 | 0.0 | 0.02 | 0.11 | 0.11 | 79 | 1009.5 |
| 20260506180051 | 39 | 0 | 0.0 | 1.0 | 0.02 | 0.11 | 0.11 | 79 | 1009.5 |
| 20260506175544 | 39 | 0 | 0.0 | 2.0 | 0.03 | 0.11 | 0.11 | 78 | 1009.6 |
| 20260506175042 | 39 | 0 | 0.0 | 2.0 | 0.02 | 0.11 | 0.11 | 78 | 1009.4 |
| 20260506174547 | 39 | 0 | 0.0 | 1.0 | 0.02 | 0.11 | 0.11 | 78 | 1009.4 |
| 20260506174042 | 39 | 0 | 0.0 | 3.0 | 0.02 | 0.11 | 0.11 | 78 | 1009.2 |
| 20260506173542 | 39 | 0 | 0.0 | 3.0 | 0.02 | 0.10 | 0.10 | 78 | 1009.3 |
| 20260506173059 | 39 | 113 | 1.0 | 3.0 | 0.02 | 0.10 | 0.10 | 78 | 1009.4 |
| 20260506172543 | 39 | 0 | 0.0 | 3.0 | 0.02 | 0.10 | 0.10 | 78 | 1009.3 |
| 20260506172043 | 39 | 130 | 0.0 | 3.0 | 0.03 | 0.10 | 0.10 | 78 | 1009.2 |
| 20260506171550 | 39 | 58 | 1.0 | 3.0 | 0.03 | 0.10 | 0.10 | 77 | 1009.2 |
| 20260506171042 | 39 | 56 | 1.0 | 3.0 | 0.03 | 0.09 | 0.09 | 77 | 1009.0 |
| 20260506170542 | 39 | 101 | 0.0 | 1.0 | 0.03 | 0.09 | 0.09 | 77 | 1009.1 |
| 20260506170050 | 39 | 0 | 0.0 | 1.0 | 0.03 | 0.09 | 0.09 | 77 | 1009.0 |
| 20260506165541 | 39 | 0 | 0.0 | 1.0 | 0.04 | 0.08 | 0.08 | 77 | 1009.1 |
| 20260506165042 | 39 | 0 | 0.0 | 4.0 | 0.05 | 0.08 | 0.08 | 77 | 1009.1 |
| 20260506164551 | 39 | 0 | 0.0 | 4.0 | 0.06 | 0.08 | 0.08 | 77 | 1009.3 |
| 20260506164041 | 39 | 20 | 0.0 | 2.0 | 0.07 | 0.08 | 0.08 | 76 | 1009.2 |
| 20260506163541 | 39 | 0 | 0.0 | 0.0 | 0.06 | 0.07 | 0.07 | 76 | 1009.2 |
| 20260506163051 | 39 | 0 | 0.0 | 0.0 | 0.07 | 0.07 | 0.07 | 75 | 1009.0 |
| 20260506162541 | 39 | 0 | 0.0 | 0.0 | 0.07 | 0.07 | 0.07 | 75 | 1009.1 |
| 20260506162041 | 39 | 0 | 0.0 | 0.0 | 0.07 | 0.07 | 0.07 | 75 | 1009.1 |
| 20260506161551 | 40 | 0 | 0.0 | 0.0 | 0.06 | 0.06 | 0.06 | 74 | 1009.2 |
| 20260506161041 | 40 | 0 | 0.0 | 0.0 | 0.06 | 0.06 | 0.06 | 74 | 1009.1 |
| 20260506160541 | 40 | 0 | 0.0 | 6.0 | 0.06 | 0.06 | 0.06 | 74 | 1009.1 |
| 20260506160055 | 40 | 0 | 0.0 | 6.0 | 0.05 | 0.05 | 0.05 | 73 | 1009.1 |